Location: Carella
(45.8167°N, 9.2667°E)
Time: 13:19:12
(UTC+00:00)

STARLINK-1211 - Visible Passes

Search period start: 06 August 2020 00:00
Search period end: 16 August 2020 00:00
Orbit: 549 x 550 km, 53.0° (Epoch: 05 August)

Date Brightness Start Highest point End Pass type
(mag) Time Alt. Az. Time Alt. Az. Time Alt. Az.
06 Aug 5.4 20:18:46 10° WNW 20:22:28 31° N 20:26:12 10° ENE visible
06 Aug 5.0 21:58:56 10° NW 22:02:48 37° NNE 22:03:56 31° NE visible
06 Aug 5.9 23:38:30 10° WNW 23:39:33 17° WNW 23:39:33 17° WNW visible
07 Aug 5.4 20:13:21 10° WNW 20:17:02 30° N 20:20:44 10° ENE visible
07 Aug 4.7 21:53:23 10° NW 21:57:20 41° NNE 21:58:01 38° NE visible
07 Aug 6.1 23:32:58 10° WNW 23:33:37 14° WNW 23:33:37 14° WNW visible
08 Aug 5.4 20:07:53 10° WNW 20:11:34 29° N 20:15:14 10° ENE visible
08 Aug 4.3 21:47:46 10° NW 21:51:48 47° NNE 21:52:07 46° NE visible
08 Aug 6.3 23:27:26 10° WNW 23:27:44 12° WNW 23:27:44 12° WNW visible
09 Aug 5.3 20:02:22 10° WNW 20:06:03 30° N 20:09:44 10° ENE visible
09 Aug 4.0 21:42:07 10° NW 21:46:13 56° NNE 21:46:15 56° NNE visible
10 Aug 5.2 19:56:46 10° WNW 20:00:29 31° N 20:04:13 10° ENE visible
10 Aug 3.8 21:36:25 10° NW 21:40:22 67° N 21:40:22 67° N visible
11 Aug 5.1 19:51:06 10° NW 19:54:53 33° N 19:58:40 10° ENE visible
11 Aug 3.7 21:30:41 10° WNW 21:34:29 73° NW 21:34:29 73° NW visible
12 Aug 4.9 19:45:22 10° NW 19:49:13 36° NNE 19:53:00 10° E visible
12 Aug 3.8 21:24:55 10° WNW 21:28:37 67° W 21:28:37 67° W visible
13 Aug 4.6 19:39:34 10° NW 19:43:30 40° NNE 19:47:07 12° E visible
13 Aug 4.0 21:19:08 10° WNW 21:22:44 55° WSW 21:22:44 55° WSW visible
14 Aug 4.4 19:33:43 10° NW 19:37:44 45° NNE 19:41:15 13° E visible
14 Aug 4.3 21:13:21 10° WNW 21:16:51 44° WSW 21:16:51 44° WSW visible
15 Aug 4.1 19:27:49 10° NW 19:31:54 53° NNE 19:35:23 14° E visible
15 Aug 4.6 21:07:33 10° WNW 21:10:59 35° SW 21:10:59 35° SW visible
